Preview of NWS' New Version of Forecast
This preview is not operational and should not be used for support decisions.

Regional Weather Roundup (RWR)

Issued by National Weather Service (NWS)

                            
000
ASUS43 KTOP 171608
RWRKS 

WEATHER ROUNDUP FOR KANSAS
NATIONAL WEATHER SERVICE GOODLAND KS
1000 AM CST SUN FEB 17 2019

NOTE:  "FAIR" INDICATES FEW OR NO CLOUDS BELOW 12,000 FEET WITH NO
SIGNIFICANT WEATHER AND/OR OBSTRUCTIONS TO VISIBILITY.

KSZ001>006-013>018-027>032-041>047-171700-
NORTHWEST KANSAS
  
CITY           SKY/WX    TMP DP  RH WIND       PRES   REMARKS
GOODLAND       MOSUNNY   16  11  80 N17       29.93R WCI   0          
HAYS           SUNNY     23  16  74 NW18      29.97R WCI   9          
HILL CITY      SUNNY     19  11  70 NW21G31   29.97R WCI   3          
RUSSELL        SUNNY     20  14  77 NW17      29.95R WCI   5          
$$

KSZ061>065-074>080-084>089-171700-
SOUTHWEST KANSAS
  
CITY           SKY/WX    TMP DP  RH WIND       PRES   REMARKS
DODGE CITY       N/A     23  15  71 N17G29    29.94R WCI   9          
ELKHART        SUNNY     33  25  73 N5        29.94R                  
GARDEN CITY    SUNNY     22  17  81 N20       29.95R WCI   7          
GREAT BEND     CLOUDY    22  17  81 NW15G23   29.97R WCI   9          
LIBERAL        SUNNY     31  25  78 N12       29.99R WCI  22          
PRATT          PTSUNNY   26  20  80 NW16      29.97R WCI  13          
$$

KSZ066>073-081>083-090>101-171700-
SOUTHEAST KANSAS
  
CITY           SKY/WX    TMP DP  RH WIND       PRES   REMARKS
CHANUTE        PTSUNNY   26  19  74 W13       29.95R WCI  15          
COFFEYVILLE    CLOUDY    27  22  81 NW10      29.97R WCI  17          
HUTCHINSON     MOSUNNY   24  19  81 NW15      29.96R WCI  11          
MEDICINE LODGE   N/A     28  20  71 NW20      29.97R WCI  15          
NEWTON         SUNNY     24  18  77 NW17      29.95  WCI  11          
PARSONS        CLOUDY    26  22  84 NW14G21   29.96R WCI  14          
WICHITA INTL   CLOUDY    28  19  69 N16G26    29.95S WCI  16          
WICHITA JABRA  SUNNY     26  15  63 NW23G31   29.94R WCI  11          
WICHITA MCCONL MOSUNNY   28  18  64 W18       29.94  WCI  16          
WINFIELD       PTSUNNY   28  22  78 NW12      29.97R WCI  18          
$$

KSZ007>012-019>026-033>040-048>060-102>105-171700-
NORTHEAST KANSAS
  
CITY           SKY/WX    TMP DP  RH WIND       PRES   REMARKS
CONCORDIA      SUNNY     16  11  80 W13       29.92R WCI   2          
EMPORIA        CLOUDY    22  16  78 NW15G24   29.93R WCI   9          
LAWRENCE       CLOUDY    23  17  78 W12G23    29.92R HAZE    WCI  12  
MANHATTAN      SUNNY     20  14  77 W9        29.95R                  
MARYSVILLE     CLOUDY    19  16  86 NW12      29.90R WCI   7          
OLATHE IND     CLOUDY    22  18  85 NW15      29.89R WCI   9          
OLATHE EXE     CLOUDY    22  18  85 W12G18    29.87R WCI  10          
SALINA         SUNNY     21  15  78 NW15      29.96S WCI   8          
TOPEKA BILLARD CLOUDY    22  16  78 W10G23    29.92R WCI  11          
TOPEKA FORBES  CLOUDY    22  16  78 NW15      29.90R HAZE    WCI   9  
$$